TimeCST,TemperatureF,Dew PointF,Humidity,Sea Level PressureIn,VisibilityMPH,Wind Direction,Wind SpeedMPH,Gust SpeedMPH,PrecipitationIn,Events,Conditions,WindDirDegrees,DateUTC
12:53 AM,69.1,66.0,90,29.70,6.0,SSE,12.7,21.9,N/A,,Overcast,150,2013-02-21 06:53:00
1:16 AM,69.8,66.2,88,29.69,6.0,SE,13.8,-,N/A,,Overcast,140,2013-02-21 07:16:00
1:23 AM,68.0,66.2,94,29.68,6.0,SE,17.3,24.2,0.00,Rain,Light Rain,140,2013-02-21 07:23:00
1:32 AM,69.8,66.2,88,29.68,6.0,SSE,15.0,24.2,0.00,,Overcast,150,2013-02-21 07:32:00
1:53 AM,68.0,66.0,93,29.68,6.0,SE,16.1,-,0.00,,Overcast,140,2013-02-21 07:53:00
2:27 AM,69.8,66.2,88,29.66,6.0,SSE,13.8,-,N/A,,Overcast,150,2013-02-21 08:27:00
2:42 AM,69.8,66.2,88,29.66,6.0,SE,15.0,-,N/A,,Overcast,140,2013-02-21 08:42:00
2:49 AM,69.8,66.2,88,29.65,5.0,SE,15.0,-,N/A,,Overcast,140,2013-02-21 08:49:00
2:53 AM,68.0,66.9,96,29.66,5.0,SE,13.8,-,N/A,,Overcast,140,2013-02-21 08:53:00
3:14 AM,68.0,66.2,94,29.64,5.0,SSE,13.8,21.9,N/A,,Overcast,150,2013-02-21 09:14:00
3:53 AM,68.0,66.9,96,29.63,5.0,SSE,12.7,20.7,N/A,,Overcast,150,2013-02-21 09:53:00
4:00 AM,68.0,66.2,94,29.62,5.0,SSE,13.8,-,N/A,,Overcast,150,2013-02-21 10:00:00
4:18 AM,68.0,66.2,94,29.61,5.0,SSE,16.1,25.3,N/A,,Overcast,150,2013-02-21 10:18:00
4:27 AM,69.8,66.2,88,29.61,5.0,SSE,17.3,25.3,N/A,,Overcast,150,2013-02-21 10:27:00
4:53 AM,69.1,66.9,93,29.60,5.0,SSE,16.1,28.8,N/A,,Overcast,160,2013-02-21 10:53:00
5:10 AM,69.8,66.2,88,29.60,5.0,SSE,17.3,26.5,N/A,,Overcast,160,2013-02-21 11:10:00
5:53 AM,69.1,66.9,93,29.61,5.0,SSE,16.1,28.8,N/A,,Overcast,160,2013-02-21 11:53:00
6:33 AM,69.8,66.2,88,29.61,5.0,SSE,18.4,29.9,N/A,,Overcast,160,2013-02-21 12:33:00
6:53 AM,70.0,66.9,90,29.63,5.0,South,15.0,27.6,N/A,,Overcast,170,2013-02-21 12:53:00
7:23 AM,69.8,66.2,88,29.64,4.0,South,18.4,25.3,N/A,,Overcast,170,2013-02-21 13:23:00
7:32 AM,69.8,66.2,88,29.64,4.0,South,17.3,28.8,N/A,,Overcast,170,2013-02-21 13:32:00
7:53 AM,70.0,66.9,90,29.65,4.0,South,13.8,26.5,N/A,,Overcast,170,2013-02-21 13:53:00
8:53 AM,71.1,66.9,87,29.67,4.0,South,16.1,28.8,N/A,,Overcast,170,2013-02-21 14:53:00
9:53 AM,71.1,66.9,87,29.68,5.0,South,13.8,24.2,N/A,,Overcast,170,2013-02-21 15:53:00
10:53 AM,72.0,66.9,84,29.73,6.0,SW,8.1,20.7,N/A,,Haze,230,2013-02-21 16:53:00
11:18 AM,73.4,68.0,83,29.72,6.0,South,5.8,-,N/A,,Haze,190,2013-02-21 17:18:00
11:38 AM,75.2,68.0,78,29.73,7.0,Variable,3.5,-,N/A,,Overcast,0,2013-02-21 17:38:00
11:46 AM,75.2,68.0,78,29.73,7.0,SSE,4.6,-,N/A,,Overcast,160,2013-02-21 17:46:00
12:39 PM,75.2,68.0,78,29.70,6.0,SSE,6.9,-,N/A,,Haze,150,2013-02-21 18:39:00
12:53 PM,75.0,68.0,79,29.71,7.0,SSE,6.9,-,N/A,,Mostly Cloudy,160,2013-02-21 18:53:00
1:53 PM,78.1,68.0,71,29.69,7.0,ESE,3.5,-,N/A,,Partly Cloudy,120,2013-02-21 19:53:00
2:53 PM,79.0,68.0,69,29.68,6.0,SE,5.8,-,N/A,,Haze,130,2013-02-21 20:53:00
3:53 PM,75.9,66.9,74,29.69,6.0,Variable,4.6,-,N/A,,Haze,0,2013-02-21 21:53:00
4:53 PM,75.9,54.0,46,29.72,10.0,North,12.7,-,N/A,,Clear,360,2013-02-21 22:53:00
5:53 PM,73.9,50.0,43,29.75,10.0,North,11.5,-,N/A,,Clear,10,2013-02-21 23:53:00
6:53 PM,71.1,48.9,45,29.77,10.0,NNE,9.2,-,N/A,,Overcast,20,2013-02-22 00:53:00
7:53 PM,69.1,46.9,45,29.79,10.0,NE,6.9,-,N/A,,Clear,40,2013-02-22 01:53:00
8:53 PM,66.9,53.1,61,29.81,10.0,ENE,6.9,-,N/A,,Clear,70,2013-02-22 02:53:00
9:53 PM,66.9,55.9,68,29.83,10.0,East,8.1,-,N/A,,Scattered Clouds,90,2013-02-22 03:53:00
10:53 PM,66.0,55.9,70,29.82,10.0,ENE,6.9,-,N/A,,Clear,70,2013-02-22 04:53:00
11:53 PM,66.0,55.0,68,29.82,10.0,East,5.8,-,N/A,,Clear,90,2013-02-22 05:53:00